Regional Weather Roundup
Issued by NWS

Home | Current Version | Previous Version | Graphics & Text | Print | Product List | Glossary On
Versions: 1 2 3 4 5 6 7 8 9 10 11 12 13 14 15 16 17 18 19 20 21 22 23 24 25 26 27 28 29 30 31 32 33 34 35 36 37 38 39 40 41 42 43 44 45 46 47 48 49 50
000
ASUS43 KMKX 060821
RWRWI

WISCONSIN REGIONAL WEATHER ROUNDUP
NATIONAL WEATHER SERVICE MILWAUKEE/SULLIVAN WI
300 AM CDT FRI MAY 06 2016

NOTE: "FAIR" INDICATES FEW OR NO CLOUDS BELOW 12,000 FEET WITH NO
SIGNIFICANT WEATHER AND/OR OBSTRUCTIONS TO VISIBILITY.

WIZ001-002-006>008-014>016-023>028-060900-
NORTHWEST WISCONSIN

CITY           SKY/WX    TMP DP  RH WIND       PRES   REMARKS
SUPERIOR ARPT  PTCLDY    42  37  82 CALM      29.77F
ASHLAND        PTCLDY    62  40  44 SW9       29.77F
HAYWARD        PTCLDY    47  40  76 CALM      29.82F
SIREN          CLEAR     63  43  47 W8        29.82F
CUMBERLAND     CLEAR     55  37  50 CALM      29.84S
RICE LAKE      CLEAR     49  43  80 CALM      29.86S
CHETEK         CLEAR     47  42  82 CALM      29.85S
LADYSMITH      CLEAR     51  39  62 CALM      29.87F
EAU CLAIRE     CLEAR     48  40  73 CALM      29.85F
MENOMONIE      CLEAR     50  42  71 E5        29.85F
NEW RICHMOND   CLEAR     55  41  59 S5        29.86S
OSCEOLA        CLEAR     51  43  75 CALM      29.87S
$$

WIZ003>005-009-010-017-018-060900-
NORTH CENTRAL WISCONSIN

CITY           SKY/WX    TMP DP  RH WIND       PRES   REMARKS
MANITOWISH WTR MOCLDY    49  44  83 S5        29.84F
ARBOR VITAE    PTCLDY    52  39  61 S3        29.85F
WOODRUFF       PTCLDY    52  39  61 S3        29.85F
RHINELANDER    CLEAR     54  37  52 SW8       29.87F
EAGLE RIVER    CLEAR     47  35  63 CALM      29.86F
LAND O LAKES   CLEAR     44  37  78 CALM      29.86F
PHILLIPS       PTCLDY    53  38  56 S6        29.85F
TOMAHAWK       CLEAR     44  40  85 CALM      29.88F
MEDFORD        PTCLDY    48  41  77 S8        29.87F
MERRILL        CLEAR     40  39  95 CALM      29.89F
$$

WIZ029-030-035-036-043>047-060900-
CENTRAL WISCONSIN

CITY           SKY/WX    TMP DP  RH WIND       PRES   REMARKS
WAUSAU         CLEAR     55  41  59 CALM      29.88F
MOSINEE        CLEAR     48  37  66 S7        29.90F
MARSHFIELD     CLEAR     50  38  63 S3        29.88F
STEVENS POINT  PTCLDY    42  37  82 CALM      29.91S
WAUPACA        CLEAR     48  38  69 CALM      29.91S
WAUTOMA        PTCLDY    43  38  82 CALM      29.93S
WISC RAPIDS    MOCLDY    48  39  71 SW3       29.91F
CAMP DOUGLAS   MOCLDY    49  46  89 S5        29.90F
$$

WIZ011>013-019>022-031-037>040-048>050-060900-
NORTHEAST WISCONSIN

CITY           SKY/WX    TMP DP  RH WIND       PRES   REMARKS
ANTIGO         CLEAR     47  38  70 CALM      29.90S
SHAWANO        CLEAR     51  38  61 CALM      29.89F
OCONTO         PTCLDY    50  41  73 CALM      29.88S
STURGEON BAY   CLOUDY    48  37  66 S6        29.92F
GREEN BAY      CLOUDY    50  44  80 SW6       29.90F
MANITOWOC      CLOUDY    47  41  80 MISG      29.92F
APPLETON       CLEAR     48  34  57 SW7       29.90R
CLINTONVILLE   CLEAR     46  36  66 S3        29.89F
OSHKOSH        CLEAR     47  36  65 S6        29.92S
$$

WIZ032>034-041-042-053>061-060900-
SOUTHWEST WISCONSIN

CITY           SKY/WX    TMP DP  RH WIND       PRES   REMARKS
LA CROSSE      CLEAR     56  44  64 SE7       29.90F
SPARTA         PTCLDY    46  42  86 CALM      29.91F
VIROQUA        PTCLDY    54  37  53 SW7       29.92F
BOSCOBEL       CLEAR     46  42  86 CALM      29.94F
PRAIRIE DU CHI CLEAR     51  40  65 CALM      29.93F
PLATTEVILLE    CLEAR     51  39  63 S5        29.96S
$$

WIZ056-057-062-063-064-067-068-060900-
SOUTH CENTRAL WISCONSIN

CITY           SKY/WX    TMP DP  RH WIND       PRES   REMARKS
REEDSBURG      CLEAR     48  40  76 CALM      29.92F
BARABOO/DELLS  CLEAR     48  37  65 SW5       29.92F
LONE ROCK      CLEAR     46  40  79 CALM      29.94F
MINERAL POINT  CLEAR     52  36  54 SW7       29.95F
MADISON        CLEAR     46  39  76 CALM      29.94F
MIDDLETON      MOCLDY    45  40  81 CALM      29.94F
WATERTOWN      PTCLDY    44  44 100 CALM      29.94S
MONROE         PTCLDY    52  36  54 SW9       29.95F
JANESVILLE     PTCLDY    45  43  93 CALM      29.95F
$$

WIZ051-052-058>065-066-070>072-060900-
SOUTHEAST WISCONSIN

CITY           SKY/WX    TMP DP  RH WIND       PRES   REMARKS
MILWAUKEE      CLOUDY    49  38  65 SW3       29.95S
WAUKESHA       CLOUDY    45  39  81 CALM      29.95F
MILWAUKEE/TIMM PTCLDY    46  36  66 CALM      29.96S
RACINE         CLOUDY    45  37  73 SW5       29.96F
BURLINGTON     PTCLDY    42  41  94 CALM      29.95F
KENOSHA        CLOUDY    42  37  82 SW5       29.95F
FOND DU LAC    CLOUDY    46  39  76 S5        29.93S
SHEBOYGAN      CLOUDY    46  40  79 SW6       29.92F
WEST BEND      PTCLDY    45  41  87 CALM      29.93F
JUNEAU         CLEAR     44  39  81 SE5       29.95S
$$

LSZ147-162-060900-
LAKE SUPERIOR

STATION/POSITION TIME  TEMP    WIND        PRES    WAVE
                       AIR SEA DIR/SP/G            HT/PER
                 (UTC) (F)     (DEG/KT/KT) (MB)    (FT/S)
W MID LAKE BUOY  0750   44 37  190/ 10/ 10 1007.4F   1
DEVILS ISLAND    0800   40     280/  4/  4 1007.8F
SAXON HARBOR     0700   64     180/  8/ 15 1007.8F
$$

LMZ867-665-643>646-060900-
LAKE MICHIGAN

STATION/POSITION TIME  TEMP    WIND        PRES    WAVE
                       AIR SEA DIR/SP/G            HT/PER
                 (UTC) (F)     (DEG/KT/KT) (MB)    (FT/S)
CHAMBERS ISLAND  0700   50     180/  6/ 10 1012.2F
N MID LAKE BUOY  0750   41 39  190/  8/ 10 1012.8F   0
NORTHPORT PIER   0700   49     170/  5/  8 1012.2F
ALGOMA LAKESHORE 0715          210/  8/  9   N/A
KEWAUNEE LAKESHO 0800   47     160/  7/  7 1012.1F
SHEBOYGAN LAKESH 0800   50     220/  8/  9 1013.7F
PORT WASHINGTON  0700   48      CALM  /  3 1014.6F
S MID LAKE BUOY  0750   42 40  220/  4/  6 1014.7F   1/ 5
KENOSHA   LAKESH 0800   48     220/  3/  5 1014.2F
$$

TC  - TEMPERATURE IN CELSIUS
VSB - VISIBILITY IN STATUTE MILES
WCI - WIND CHILL INDEX
HX  - HEAT INDEX





USA.gov is the U.S. government's official web portal to all federal, state and local government web resources and services.